Time,TemperatureF,DewpointF,PressureIn,WindDirection,WindDirectionDegrees,WindSpeedMPH,WindSpeedGustMPH,Humidity,HourlyPrecipIn,Conditions,Clouds,dailyrainin,SoftwareType,DateUTC
2013-03-09 00:00:00,33.2,30.6,30.33,WNW,294,0.0,0.0,90,0.00,,,0.00,Wunderground v.1.15,2013-03-09 05:00:00,
2013-03-09 00:05:00,33.0,30.4,30.33,WNW,294,0.0,0.0,90,0.00,,,0.00,Wunderground v.1.15,2013-03-09 05:05:00,
2013-03-09 00:10:00,33.0,30.4,30.33,WNW,294,0.0,0.0,90,0.00,,,0.00,Wunderground v.1.15,2013-03-09 05:10:00,
2013-03-09 00:15:00,32.9,30.3,30.33,WNW,294,0.0,0.0,90,0.00,,,0.00,Wunderground v.1.15,2013-03-09 05:15:00,
2013-03-09 00:20:00,32.8,30.2,30.33,WNW,294,0.0,0.0,90,0.00,,,0.00,Wunderground v.1.15,2013-03-09 05:20:00,
2013-03-09 00:30:00,32.6,30.3,30.33,WNW,294,0.0,0.0,91,0.00,,,0.00,Wunderground v.1.15,2013-03-09 05:30:00,
2013-03-09 00:35:00,32.5,29.9,30.33,WNW,294,0.0,0.0,90,0.00,,,0.00,Wunderground v.1.15,2013-03-09 05:35:00,
2013-03-09 00:45:00,32.3,30.0,30.33,WNW,294,0.0,0.0,91,0.00,,,0.00,Wunderground v.1.15,2013-03-09 05:45:00,
2013-03-09 00:55:00,32.1,29.8,30.33,WNW,294,0.0,0.0,91,0.00,,,0.00,Wunderground v.1.15,2013-03-09 05:55:00,
2013-03-09 01:00:00,31.9,29.6,30.33,WNW,294,0.0,0.0,91,0.00,,,0.00,Wunderground v.1.15,2013-03-09 06:00:00,
2013-03-09 01:10:00,31.8,29.5,30.33,WNW,294,0.0,0.0,91,0.00,,,0.00,Wunderground v.1.15,2013-03-09 06:10:00,
2013-03-09 01:15:00,31.8,29.5,30.33,WNW,294,0.0,0.0,91,0.00,,,0.00,Wunderground v.1.15,2013-03-09 06:15:00,
2013-03-09 01:25:00,31.6,29.3,30.33,WNW,294,0.0,0.0,91,0.00,,,0.00,Wunderground v.1.15,2013-03-09 06:25:00,
2013-03-09 01:35:00,31.5,29.2,30.33,WNW,294,0.0,0.0,91,0.00,,,0.00,Wunderground v.1.15,2013-03-09 06:35:00,
2013-03-09 01:45:00,31.1,28.8,30.34,WNW,294,0.0,0.0,91,0.00,,,0.00,Wunderground v.1.15,2013-03-09 06:45:00,
2013-03-09 01:50:00,31.0,28.7,30.34,WNW,294,0.0,0.0,91,0.00,,,0.00,Wunderground v.1.15,2013-03-09 06:50:00,
2013-03-09 02:00:00,30.7,28.7,30.34,WNW,294,0.0,0.0,92,0.00,,,0.00,Wunderground v.1.15,2013-03-09 07:00:00,
2013-03-09 02:10:00,30.6,28.6,30.33,WNW,294,0.0,0.0,92,0.00,,,0.00,Wunderground v.1.15,2013-03-09 07:10:00,
2013-03-09 02:20:00,30.7,28.9,30.33,WNW,294,0.0,0.0,93,0.00,,,0.00,Wunderground v.1.15,2013-03-09 07:20:00,
2013-03-09 02:25:00,30.6,28.6,30.33,WNW,294,0.0,0.0,92,0.00,,,0.00,Wunderground v.1.15,2013-03-09 07:25:00,
2013-03-09 02:30:00,30.6,28.8,30.33,WNW,294,0.0,0.0,93,0.00,,,0.00,Wunderground v.1.15,2013-03-09 07:30:00,
2013-03-09 02:40:00,30.2,28.2,30.33,WNW,294,0.0,0.0,92,0.00,,,0.00,Wunderground v.1.15,2013-03-09 07:40:00,
2013-03-09 02:45:00,30.1,28.3,30.33,WNW,294,0.0,0.0,93,0.00,,,0.00,Wunderground v.1.15,2013-03-09 07:45:00,
2013-03-09 02:55:00,29.8,27.8,30.33,WNW,294,0.0,0.0,92,0.00,,,0.00,Wunderground v.1.15,2013-03-09 07:55:00,
2013-03-09 03:05:00,29.6,27.8,30.32,WNW,294,0.0,0.0,93,0.00,,,0.00,Wunderground v.1.15,2013-03-09 08:05:00,
2013-03-09 03:10:00,29.6,27.8,30.32,WNW,294,0.0,0.0,93,0.00,,,0.00,Wunderground v.1.15,2013-03-09 08:10:00,
2013-03-09 03:20:00,29.6,27.8,30.32,WNW,294,0.0,0.0,93,0.00,,,0.00,Wunderground v.1.15,2013-03-09 08:20:00,
2013-03-09 03:30:00,29.6,27.8,30.32,WNW,294,0.0,0.0,93,0.00,,,0.00,Wunderground v.1.15,2013-03-09 08:30:00,
2013-03-09 03:40:00,29.6,27.8,30.32,WNW,294,0.0,0.0,93,0.00,,,0.00,Wunderground v.1.15,2013-03-09 08:40:00,
2013-03-09 03:45:00,29.5,27.7,30.32,WNW,294,0.0,0.0,93,0.00,,,0.00,Wunderground v.1.15,2013-03-09 08:45:00,
2013-03-09 03:50:00,29.4,27.6,30.32,WNW,294,0.0,0.0,93,0.00,,,0.00,Wunderground v.1.15,2013-03-09 08:50:00,
2013-03-09 04:00:00,29.2,27.4,30.32,WNW,294,0.0,0.0,93,0.00,,,0.00,Wunderground v.1.15,2013-03-09 09:00:00,
2013-03-09 04:10:00,29.2,27.4,30.32,WNW,294,0.0,0.0,93,0.00,,,0.00,Wunderground v.1.15,2013-03-09 09:10:00,
2013-03-09 04:20:00,29.2,27.4,30.32,WNW,294,0.0,0.0,93,0.00,,,0.00,Wunderground v.1.15,2013-03-09 09:20:00,
2013-03-09 04:25:00,29.4,27.9,30.32,North,10,0.0,0.0,94,0.00,,,0.00,Wunderground v.1.15,2013-03-09 09:25:00,
2013-03-09 04:30:00,29.7,28.2,30.32,North,10,0.0,0.0,94,0.00,,,0.00,Wunderground v.1.15,2013-03-09 09:30:00,
2013-03-09 04:40:00,29.6,28.1,30.32,North,9,0.0,0.0,94,0.00,,,0.00,Wunderground v.1.15,2013-03-09 09:40:00,
2013-03-09 04:45:00,29.7,28.2,30.32,North,9,0.0,0.0,94,0.00,,,0.00,Wunderground v.1.15,2013-03-09 09:45:00,
2013-03-09 04:50:00,29.6,27.8,30.32,North,9,0.0,0.0,93,0.00,,,0.00,Wunderground v.1.15,2013-03-09 09:50:00,
2013-03-09 05:00:00,29.6,27.8,30.33,North,9,0.0,0.0,93,0.00,,,0.00,Wunderground v.1.15,2013-03-09 10:00:00,
2013-03-09 05:10:00,29.5,27.7,30.33,North,9,0.0,0.0,93,0.00,,,0.00,Wunderground v.1.15,2013-03-09 10:10:00,
2013-03-09 05:20:00,29.4,27.6,30.34,North,9,0.0,0.0,93,0.00,,,0.00,Wunderground v.1.15,2013-03-09 10:20:00,
2013-03-09 05:30:00,29.5,28.0,30.34,North,9,0.0,0.0,94,0.00,,,0.00,Wunderground v.1.15,2013-03-09 10:30:00,
2013-03-09 05:40:00,29.5,28.0,30.34,North,9,0.0,0.0,94,0.00,,,0.00,Wunderground v.1.15,2013-03-09 10:40:00,
2013-03-09 05:50:00,29.5,27.7,30.34,North,9,0.0,0.0,93,0.00,,,0.00,Wunderground v.1.15,2013-03-09 10:50:00,
2013-03-09 05:55:00,29.6,28.1,30.34,North,9,0.0,0.0,94,0.00,,,0.00,Wunderground v.1.15,2013-03-09 10:55:00,
2013-03-09 06:05:00,29.4,27.9,30.35,North,9,0.0,0.0,94,0.00,,,0.00,Wunderground v.1.15,2013-03-09 11:05:00,
2013-03-09 06:10:00,29.2,27.4,30.35,North,9,0.0,0.0,93,0.00,,,0.00,Wunderground v.1.15,2013-03-09 11:10:00,
2013-03-09 06:20:00,28.9,27.1,30.35,North,9,0.0,0.0,93,0.00,,,0.00,Wunderground v.1.15,2013-03-09 11:20:00,
2013-03-09 06:30:00,28.9,27.4,30.35,North,9,0.0,0.0,94,0.00,,,0.00,Wunderground v.1.15,2013-03-09 11:30:00,
2013-03-09 06:35:00,28.9,27.1,30.36,North,9,0.0,0.0,93,0.00,,,0.00,Wunderground v.1.15,2013-03-09 11:35:00,
2013-03-09 06:45:00,28.8,27.0,30.36,North,9,0.0,0.0,93,0.00,,,0.00,Wunderground v.1.15,2013-03-09 11:45:00,
2013-03-09 06:50:00,28.8,27.0,30.36,North,9,0.0,0.0,93,0.00,,,0.00,Wunderground v.1.15,2013-03-09 11:50:00,
2013-03-09 07:00:00,28.7,27.2,30.37,NW,318,0.0,0.0,94,0.00,,,0.00,Wunderground v.1.15,2013-03-09 12:00:00,
2013-03-09 07:10:00,28.9,27.4,30.37,NW,318,0.0,0.0,94,0.00,,,0.00,Wunderground v.1.15,2013-03-09 12:10:00,
2013-03-09 07:15:00,29.3,27.8,30.38,NW,318,0.0,0.0,94,0.00,,,0.00,Wunderground v.1.15,2013-03-09 12:15:00,
2013-03-09 07:25:00,30.5,29.0,30.38,NW,318,0.0,0.0,94,0.00,,,0.00,Wunderground v.1.15,2013-03-09 12:25:00,
2013-03-09 07:30:00,30.9,29.4,30.38,NNW,338,0.0,0.0,94,0.00,,,0.00,Wunderground v.1.15,2013-03-09 12:30:00,
2013-03-09 07:40:00,32.4,30.9,30.38,NNW,339,0.0,0.0,94,0.00,,,0.00,Wunderground v.1.15,2013-03-09 12:40:00,
2013-03-09 07:45:00,33.4,31.9,30.38,NNW,339,0.0,0.0,94,0.00,,,0.00,Wunderground v.1.15,2013-03-09 12:45:00,
2013-03-09 07:55:00,35.5,33.4,30.39,NNE,33,0.0,0.0,92,0.00,,,0.00,Wunderground v.1.15,2013-03-09 12:55:00,
2013-03-09 08:05:00,38.6,33.3,30.39,ENE,71,1.0,2.0,81,0.00,,,0.00,Wunderground v.1.15,2013-03-09 13:05:00,
2013-03-09 08:15:00,41.1,32.4,30.40,ENE,63,2.0,2.0,71,0.00,,,0.00,Wunderground v.1.15,2013-03-09 13:15:00,
2013-03-09 08:25:00,42.7,32.5,30.41,NE,47,2.0,3.0,67,0.00,,,0.00,Wunderground v.1.15,2013-03-09 13:25:00,
2013-03-09 08:35:00,44.1,33.8,30.41,NE,53,1.0,3.0,67,0.00,,,0.00,Wunderground v.1.15,2013-03-09 13:35:00,
2013-03-09 08:40:00,44.5,32.7,30.41,ENE,57,1.0,1.0,63,0.00,,,0.00,Wunderground v.1.15,2013-03-09 13:40:00,
2013-03-09 08:50:00,44.5,32.3,30.41,East,84,2.0,3.0,62,0.00,,,0.00,Wunderground v.1.15,2013-03-09 13:50:00,
2013-03-09 08:55:00,44.6,32.0,30.41,ESE,111,4.0,7.0,61,0.00,,,0.00,Wunderground v.1.15,2013-03-09 13:55:00,
2013-03-09 09:05:00,45.0,32.8,30.41,ESE,123,4.0,4.0,62,0.00,,,0.00,Wunderground v.1.15,2013-03-09 14:05:00,
2013-03-09 09:15:00,45.8,32.7,30.42,ESE,107,3.0,7.0,60,0.00,,,0.00,Wunderground v.1.15,2013-03-09 14:15:00,
2013-03-09 09:25:00,46.7,33.5,30.41,ENE,75,3.0,3.0,60,0.00,,,0.00,Wunderground v.1.15,2013-03-09 14:25:00,
2013-03-09 09:35:00,47.2,32.3,30.41,East,96,5.0,8.0,56,0.00,,,0.00,Wunderground v.1.15,2013-03-09 14:35:00,
2013-03-09 09:45:00,47.8,32.4,30.41,ESE,120,6.0,6.0,55,0.00,,,0.00,Wunderground v.1.15,2013-03-09 14:45:00,
2013-03-09 09:55:00,48.2,32.8,30.41,SE,146,6.0,10.0,55,0.00,,,0.00,Wunderground v.1.15,2013-03-09 14:55:00,
2013-03-09 10:05:00,49.7,33.2,30.41,ESE,102,5.0,6.0,53,0.00,,,0.00,Wunderground v.1.15,2013-03-09 15:05:00,
2013-03-09 10:15:00,50.0,32.6,30.41,East,86,6.0,6.0,51,0.00,,,0.00,Wunderground v.1.15,2013-03-09 15:15:00,
2013-03-09 10:20:00,50.0,32.6,30.41,SE,127,5.0,5.0,51,0.00,,,0.00,Wunderground v.1.15,2013-03-09 15:20:00,
2013-03-09 10:30:00,50.9,32.4,30.41,SE,143,4.0,4.0,49,0.00,,,0.00,Wunderground v.1.15,2013-03-09 15:30:00,
2013-03-09 10:40:00,51.7,32.6,30.41,East,92,4.0,4.0,48,0.00,,,0.00,Wunderground v.1.15,2013-03-09 15:40:00,
2013-03-09 10:50:00,53.2,34.0,30.41,SW,220,2.0,4.0,48,0.00,,,0.00,Wunderground v.1.15,2013-03-09 15:50:00,
2013-03-09 11:00:00,53.3,33.0,30.40,East,89,4.0,8.0,46,0.00,,,0.00,Wunderground v.1.15,2013-03-09 16:00:00,
2013-03-09 11:05:00,53.5,33.2,30.40,SE,136,4.0,8.0,46,0.00,,,0.00,Wunderground v.1.15,2013-03-09 16:05:00,
2013-03-09 11:15:00,54.4,32.9,30.40,SE,146,7.0,8.0,44,0.00,,,0.00,Wunderground v.1.15,2013-03-09 16:15:00,
2013-03-09 11:25:00,54.8,33.8,30.40,SSE,159,4.0,4.0,45,0.00,,,0.00,Wunderground v.1.15,2013-03-09 16:25:00,
2013-03-09 11:40:00,55.8,33.0,30.40,WNW,290,3.0,4.0,42,0.00,,,0.00,Wunderground v.1.15,2013-03-09 16:40:00,
2013-03-09 11:55:00,56.8,33.3,30.39,ESE,103,2.0,4.0,41,0.00,,,0.00,Wunderground v.1.15,2013-03-09 16:55:00,
2013-03-09 12:15:00,57.5,32.7,30.38,WNW,294,3.0,3.0,39,0.00,,,0.00,Wunderground v.1.15,2013-03-09 17:15:00,
2013-03-09 12:25:00,57.6,33.4,30.38,ESE,110,4.0,6.0,40,0.00,,,0.00,Wunderground v.1.15,2013-03-09 17:25:00,
2013-03-09 12:40:00,58.8,33.9,30.37,SE,134,4.0,4.0,39,0.00,,,0.00,Wunderground v.1.15,2013-03-09 17:40:00,
2013-03-09 12:45:00,59.4,33.8,30.37,ENE,77,3.0,5.0,38,0.00,,,0.00,Wunderground v.1.15,2013-03-09 17:45:00,
2013-03-09 12:50:00,59.6,34.6,30.37,NNE,21,3.0,3.0,39,0.00,,,0.00,Wunderground v.1.15,2013-03-09 17:50:00,
2013-03-09 13:00:00,60.0,34.3,30.36,NE,38,3.0,4.0,38,0.00,,,0.00,Wunderground v.1.15,2013-03-09 18:00:00,
2013-03-09 13:05:00,60.0,35.0,30.36,NNE,18,3.0,4.0,39,0.00,,,0.00,Wunderground v.1.15,2013-03-09 18:05:00,
2013-03-09 13:15:00,59.7,32.7,30.35,East,96,4.0,9.0,36,0.00,,,0.00,Wunderground v.1.15,2013-03-09 18:15:00,
2013-03-09 13:20:00,59.9,32.9,30.35,North,5,3.0,7.0,36,0.00,,,0.00,Wunderground v.1.15,2013-03-09 18:20:00,
2013-03-09 13:30:00,61.1,34.6,30.34,North,350,3.0,5.0,37,0.00,,,0.00,Wunderground v.1.15,2013-03-09 18:30:00,
2013-03-09 13:40:00,61.6,34.4,30.34,NNE,24,3.0,3.0,36,0.00,,,0.00,Wunderground v.1.15,2013-03-09 18:40:00,
2013-03-09 13:55:00,62.1,32.6,30.33,NNE,25,4.0,5.0,33,0.00,,,0.00,Wunderground v.1.15,2013-03-09 18:55:00,
2013-03-09 14:10:00,62.2,32.7,30.32,ENE,68,4.0,4.0,33,0.00,,,0.00,Wunderground v.1.15,2013-03-09 19:10:00,
2013-03-09 14:15:00,62.1,32.6,30.32,NE,40,4.0,4.0,33,0.00,,,0.00,Wunderground v.1.15,2013-03-09 19:15:00,
2013-03-09 14:20:00,62.3,31.3,30.31,NNW,340,3.0,3.0,31,0.00,,,0.00,Wunderground v.1.15,2013-03-09 19:20:00,
2013-03-09 14:30:00,62.7,32.4,30.31,NW,304,4.0,4.0,32,0.00,,,0.00,Wunderground v.1.15,2013-03-09 19:30:00,
2013-03-09 14:40:00,63.4,33.0,30.31,WNW,288,2.0,2.0,32,0.00,,,0.00,Wunderground v.1.15,2013-03-09 19:40:00,
2013-03-09 14:50:00,62.7,33.2,30.30,SSE,159,4.0,4.0,33,0.00,,,0.00,Wunderground v.1.15,2013-03-09 19:50:00,
2013-03-09 15:00:00,63.7,34.0,30.30,NE,51,3.0,3.0,33,0.00,,,0.00,Wunderground v.1.15,2013-03-09 20:00:00,
2013-03-09 15:10:00,63.7,34.0,30.30,ESE,107,5.0,5.0,33,0.00,,,0.00,Wunderground v.1.15,2013-03-09 20:10:00,
2013-03-09 15:15:00,63.3,33.7,30.30,SSE,150,4.0,5.0,33,0.00,,,0.00,Wunderground v.1.15,2013-03-09 20:15:00,
2013-03-09 15:25:00,64.2,34.5,30.30,South,169,3.0,4.0,33,0.00,,,0.00,Wunderground v.1.15,2013-03-09 20:25:00,
2013-03-09 15:30:00,65.2,34.6,30.30,SSE,149,2.0,5.0,32,0.00,,,0.00,Wunderground v.1.15,2013-03-09 20:30:00,
2013-03-09 15:40:00,65.2,35.4,30.29,NNE,12,3.0,3.0,33,0.00,,,0.00,Wunderground v.1.15,2013-03-09 20:40:00,
2013-03-09 15:50:00,65.0,33.6,30.29,SSE,168,3.0,4.0,31,0.00,,,0.00,Wunderground v.1.15,2013-03-09 20:50:00,
2013-03-09 16:00:00,65.2,33.8,30.29,South,183,4.0,4.0,31,0.00,,,0.00,Wunderground v.1.15,2013-03-09 21:00:00,
2013-03-09 16:05:00,65.3,33.9,30.29,SSW,199,3.0,4.0,31,0.00,,,0.00,Wunderground v.1.15,2013-03-09 21:05:00,
2013-03-09 16:10:00,65.6,34.9,30.28,South,180,2.0,3.0,32,0.00,,,0.00,Wunderground v.1.15,2013-03-09 21:10:00,
2013-03-09 16:15:00,65.6,34.1,30.28,SE,132,2.0,3.0,31,0.00,,,0.00,Wunderground v.1.15,2013-03-09 21:15:00,
2013-03-09 16:25:00,65.0,34.4,30.28,ESE,107,2.0,4.0,32,0.00,,,0.00,Wunderground v.1.15,2013-03-09 21:25:00,
2013-03-09 16:30:00,64.9,34.3,30.28,ENE,64,2.0,2.0,32,0.00,,,0.00,Wunderground v.1.15,2013-03-09 21:30:00,
2013-03-09 16:35:00,65.0,35.2,30.28,NE,34,2.0,2.0,33,0.00,,,0.00,Wunderground v.1.15,2013-03-09 21:35:00,
2013-03-09 16:45:00,65.4,34.8,30.28,SSE,155,2.0,3.0,32,0.00,,,0.00,Wunderground v.1.15,2013-03-09 21:45:00,
2013-03-09 16:55:00,65.2,34.6,30.28,ENE,60,2.0,4.0,32,0.00,,,0.00,Wunderground v.1.15,2013-03-09 21:55:00,
2013-03-09 17:05:00,64.6,34.8,30.28,East,97,2.0,4.0,33,0.00,,,0.00,Wunderground v.1.15,2013-03-09 22:05:00,
2013-03-09 17:15:00,64.5,34.0,30.28,ESE,109,3.0,3.0,32,0.00,,,0.00,Wunderground v.1.15,2013-03-09 22:15:00,
2013-03-09 17:25:00,65.2,34.6,30.28,ESE,106,1.0,2.0,32,0.00,,,0.00,Wunderground v.1.15,2013-03-09 22:25:00,
2013-03-09 17:30:00,65.3,35.4,30.28,ESE,108,1.0,2.0,33,0.00,,,0.00,Wunderground v.1.15,2013-03-09 22:30:00,
2013-03-09 17:35:00,64.6,34.8,30.28,SE,128,3.0,4.0,33,0.00,,,0.00,Wunderground v.1.15,2013-03-09 22:35:00,
2013-03-09 17:45:00,63.8,34.9,30.28,SE,135,3.0,6.0,34,0.00,,,0.00,Wunderground v.1.15,2013-03-09 22:45:00,
2013-03-09 17:55:00,63.3,35.2,30.28,SE,135,1.0,2.0,35,0.00,,,0.00,Wunderground v.1.15,2013-03-09 22:55:00,
2013-03-09 18:05:00,62.0,34.7,30.28,SE,130,2.0,4.0,36,0.00,,,0.00,Wunderground v.1.15,2013-03-09 23:05:00,
2013-03-09 18:10:00,61.5,38.2,30.28,SE,131,1.0,1.0,42,0.00,,,0.00,Wunderground v.1.15,2013-03-09 23:10:00,
2013-03-09 18:20:00,59.4,38.0,30.28,SE,131,0.0,2.0,45,0.00,,,0.00,Wunderground v.1.15,2013-03-09 23:20:00,
2013-03-09 18:30:00,57.2,38.2,30.28,SE,130,1.0,1.0,49,0.00,,,0.00,Wunderground v.1.15,2013-03-09 23:30:00,
2013-03-09 18:40:00,55.4,38.5,30.29,SE,130,0.0,0.0,53,0.00,,,0.00,Wunderground v.1.15,2013-03-09 23:40:00,
2013-03-09 18:50:00,54.0,38.6,30.29,SE,130,0.0,0.0,56,0.00,,,0.00,Wunderground v.1.15,2013-03-09 23:50:00,
2013-03-09 19:00:00,52.8,38.9,30.30,SE,130,0.0,0.0,59,0.00,,,0.00,Wunderground v.1.15,2013-03-10 00:00:00,
2013-03-09 19:10:00,51.9,38.4,30.30,SE,130,0.0,0.0,60,0.00,,,0.00,Wunderground v.1.15,2013-03-10 00:10:00,
2013-03-09 19:20:00,51.4,38.4,30.30,SE,130,0.0,0.0,61,0.00,,,0.00,Wunderground v.1.15,2013-03-10 00:20:00,
2013-03-09 19:30:00,51.1,38.9,30.30,SE,130,0.0,0.0,63,0.00,,,0.00,Wunderground v.1.15,2013-03-10 00:30:00,
2013-03-09 19:40:00,50.8,39.1,30.30,SE,130,0.0,0.0,64,0.00,,,0.00,Wunderground v.1.15,2013-03-10 00:40:00,
2013-03-09 19:50:00,50.6,39.3,30.30,SE,130,0.0,0.0,65,0.00,,,0.00,Wunderground v.1.15,2013-03-10 00:50:00,
2013-03-09 19:55:00,50.4,39.1,30.30,SE,130,0.0,0.0,65,0.00,,,0.00,Wunderground v.1.15,2013-03-10 00:55:00,
2013-03-09 20:00:00,50.3,39.0,30.30,SE,130,0.0,0.0,65,0.00,,,0.00,Wunderground v.1.15,2013-03-10 01:00:00,
2013-03-09 20:10:00,50.0,39.8,30.30,SE,130,0.0,0.0,68,0.00,,,0.00,Wunderground v.1.15,2013-03-10 01:10:00,
2013-03-09 20:15:00,49.8,39.3,30.30,SE,130,0.0,0.0,67,0.00,,,0.00,Wunderground v.1.15,2013-03-10 01:15:00,
2013-03-09 20:25:00,49.4,39.3,30.30,SE,130,0.0,0.0,68,0.00,,,0.00,Wunderground v.1.15,2013-03-10 01:25:00,
2013-03-09 20:35:00,49.1,39.4,30.31,SE,130,0.0,0.0,69,0.00,,,0.00,Wunderground v.1.15,2013-03-10 01:35:00,
2013-03-09 20:45:00,48.8,39.4,30.31,SE,130,0.0,0.0,70,0.00,,,0.00,Wunderground v.1.15,2013-03-10 01:45:00,
2013-03-09 20:50:00,48.5,39.2,30.31,SE,130,0.0,0.0,70,0.00,,,0.00,Wunderground v.1.15,2013-03-10 01:50:00,
2013-03-09 21:00:00,47.9,38.9,30.31,SE,130,0.0,0.0,71,0.00,,,0.00,Wunderground v.1.15,2013-03-10 02:00:00,
2013-03-09 21:05:00,47.6,39.0,30.31,SE,130,0.0,0.0,72,0.00,,,0.00,Wunderground v.1.15,2013-03-10 02:05:00,
2013-03-09 21:15:00,47.0,38.8,30.31,SE,130,0.0,0.0,73,0.00,,,0.00,Wunderground v.1.15,2013-03-10 02:15:00,
2013-03-09 21:25:00,46.3,38.5,30.31,SE,130,0.0,0.0,74,0.00,,,0.00,Wunderground v.1.15,2013-03-10 02:25:00,
2013-03-09 21:35:00,45.8,38.3,30.31,SE,130,0.0,0.0,75,0.00,,,0.00,Wunderground v.1.15,2013-03-10 02:35:00,
2013-03-09 21:40:00,45.6,38.5,30.31,SE,130,0.0,0.0,76,0.00,,,0.00,Wunderground v.1.15,2013-03-10 02:40:00,
2013-03-09 21:45:00,45.2,38.1,30.31,SE,130,0.0,0.0,76,0.00,,,0.00,Wunderground v.1.15,2013-03-10 02:45:00,
2013-03-09 21:55:00,44.7,37.9,30.31,SE,130,0.0,0.0,77,0.00,,,0.00,Wunderground v.1.15,2013-03-10 02:55:00,
2013-03-09 22:05:00,44.2,38.1,30.31,SE,130,0.0,0.0,79,0.00,,,0.00,Wunderground v.1.15,2013-03-10 03:05:00,
2013-03-09 22:10:00,44.0,37.9,30.31,SE,130,0.0,0.0,79,0.00,,,0.00,Wunderground v.1.15,2013-03-10 03:10:00,
2013-03-09 22:15:00,43.8,38.0,30.31,SE,130,0.0,0.0,80,0.00,,,0.00,Wunderground v.1.15,2013-03-10 03:15:00,
2013-03-09 22:25:00,43.3,37.5,30.31,SE,130,0.0,0.0,80,0.00,,,0.00,Wunderground v.1.15,2013-03-10 03:25:00,
2013-03-09 22:30:00,42.9,37.2,30.31,SE,130,0.0,0.0,80,0.00,,,0.00,Wunderground v.1.15,2013-03-10 03:30:00,
2013-03-09 22:40:00,42.4,37.0,30.31,SE,130,0.0,0.0,81,0.00,,,0.00,Wunderground v.1.15,2013-03-10 03:40:00,
2013-03-09 22:50:00,41.9,36.5,30.31,SE,130,0.0,0.0,81,0.00,,,0.00,Wunderground v.1.15,2013-03-10 03:50:00,
2013-03-09 23:00:00,41.7,36.9,30.31,SE,130,0.0,0.0,83,0.00,,,0.00,Wunderground v.1.15,2013-03-10 04:00:00,
2013-03-09 23:05:00,41.6,36.8,30.31,SE,130,0.0,0.0,83,0.00,,,0.00,Wunderground v.1.15,2013-03-10 04:05:00,
2013-03-09 23:15:00,41.4,36.6,30.31,SE,130,0.0,0.0,83,0.00,,,0.00,Wunderground v.1.15,2013-03-10 04:15:00,
2013-03-09 23:20:00,41.3,36.8,30.31,SE,130,0.0,0.0,84,0.00,,,0.00,Wunderground v.1.15,2013-03-10 04:20:00,
2013-03-09 23:30:00,41.4,37.2,30.30,SE,130,0.0,0.0,85,0.00,,,0.00,Wunderground v.1.15,2013-03-10 04:30:00,
2013-03-09 23:40:00,41.4,37.5,30.29,SE,130,0.0,0.0,86,0.00,,,0.00,Wunderground v.1.15,2013-03-10 04:40:00,
2013-03-09 23:50:00,41.4,37.5,30.30,SE,130,0.0,0.0,86,0.00,,,0.00,Wunderground v.1.15,2013-03-10 04:50:00,
2013-03-09 23:55:00,41.4,37.2,30.30,SE,130,0.0,0.0,85,0.00,,,0.00,Wunderground v.1.15,2013-03-10 04:55:00,